PSMNG SBVT-SBSV

Flight info

Callsign PSMNG
Flight time 1h 30m
Altitude 39000
Route TERAT UZ42 DAKEN UZ73 VUREK
Aircraft E50P/L-SBDFGRWY/LB2

Departure

Time 2026-04-21 20:45
Airport Eurico de Aguiar Salles International Airport (SBVT)

Arrival

Time 2026-04-21 22:15
Airport Deputado Luiz Eduardo Magalhães International Airport (SBSV)
Time Latitude Longitude Altitude Speed Heading
2026-04-21 20:36 -20.25952 -40.29005 13 ft 0 kts 211°
2026-04-21 20:39 -20.25957 -40.29008 13 ft 1 kts 186°
2026-04-21 20:39 -20.25965 -40.28997 13 ft 4 kts 97°
2026-04-21 20:39 -20.25955 -40.28968 13 ft 6 kts 28°
2026-04-21 20:39 -20.25886 -40.28925 13 ft 15 kts 32°
2026-04-21 20:40 -20.25824 -40.28884 13 ft 14 kts 30°
2026-04-21 20:40 -20.25726 -40.28820 13 ft 14 kts 30°
2026-04-21 20:40 -20.25715 -40.28751 13 ft 9 kts 123°
2026-04-21 20:40 -20.25719 -40.28746 13 ft 0 kts 121°
2026-04-21 20:41 -20.25721 -40.28742 12 ft 4 kts 122°
2026-04-21 20:41 -20.25762 -40.28672 10 ft 17 kts 121°
2026-04-21 20:41 -20.25809 -40.28593 13 ft 15 kts 122°
2026-04-21 20:42 -20.25811 -40.28488 14 ft 19 kts 28°
2026-04-21 20:42 -20.25666 -40.28392 14 ft 28 kts 32°
2026-04-21 20:42 -20.25531 -40.28303 14 ft 23 kts 32°
2026-04-21 20:42 -20.25419 -40.28230 15 ft 19 kts 32°
2026-04-21 20:43 -20.25320 -40.28212 14 ft 16 kts 352°
2026-04-21 20:43 -20.25236 -40.28224 14 ft 21 kts 352°
2026-04-21 20:43 -20.25059 -40.28199 14 ft 19 kts 31°
2026-04-21 20:43 -20.25011 -40.28110 15 ft 18 kts 123°
2026-04-21 20:44 -20.25077 -40.28070 15 ft 0 kts 173°
2026-04-21 20:44 -20.25082 -40.28069 15 ft 10 kts 173°
2026-04-21 20:44 -20.25246 -40.28047 17 ft 61 kts 171°
2026-04-21 20:44 -20.26146 -40.27913 248 ft 114 kts 171°
2026-04-21 20:45 -20.26957 -40.27763 817 ft 123 kts 170°
2026-04-21 20:45 -20.27514 -40.27663 1265 ft 125 kts 169°
2026-04-21 20:45 -20.28409 -40.27474 1840 ft 139 kts 168°
2026-04-21 20:45 -20.29396 -40.27287 2443 ft 148 kts 173°
2026-04-21 20:46 -20.30462 -40.27194 2988 ft 160 kts 177°
2026-04-21 20:46 -20.31619 -40.27122 3432 ft 175 kts 176°
2026-04-21 20:46 -20.32905 -40.27006 3639 ft 197 kts 175°
2026-04-21 20:46 -20.34338 -40.26815 3779 ft 212 kts 172°
2026-04-21 20:47 -20.35767 -40.26641 4243 ft 209 kts 184°
2026-04-21 20:47 -20.37125 -40.27212 4783 ft 214 kts 220°
2026-04-21 20:47 -20.37871 -40.28540 5612 ft 210 kts 254°
2026-04-21 20:47 -20.37920 -40.30080 6385 ft 211 kts 283°
2026-04-21 20:48 -20.37283 -40.31473 7059 ft 215 kts 300°
2026-04-21 20:48 -20.36516 -40.32856 7755 ft 218 kts 297°
2026-04-21 20:48 -20.35762 -40.34271 8432 ft 221 kts 298°
2026-04-21 20:48 -20.34982 -40.35704 9087 ft 225 kts 298°
2026-04-21 20:49 -20.34199 -40.37162 9752 ft 228 kts 297°
2026-04-21 20:49 -20.33404 -40.38641 10353 ft 232 kts 298°
2026-04-21 20:49 -20.32599 -40.40141 10949 ft 234 kts 298°
2026-04-21 20:49 -20.31787 -40.41652 11521 ft 236 kts 298°
2026-04-21 20:50 -20.30965 -40.43182 11994 ft 239 kts 299°
2026-04-21 20:50 -20.30172 -40.44660 12918 ft 219 kts 300°
2026-04-21 20:50 -20.29418 -40.46060 13546 ft 220 kts 300°
2026-04-21 20:50 -20.28653 -40.47487 14031 ft 224 kts 301°
2026-04-21 20:51 -20.27874 -40.48933 14514 ft 226 kts 301°
2026-04-21 20:51 -20.27085 -40.50398 14989 ft 229 kts 301°
2026-04-21 20:51 -20.26297 -40.51862 15463 ft 232 kts 301°
2026-04-21 20:51 -20.25268 -40.53188 15920 ft 234 kts 322°
2026-04-21 20:52 -20.23876 -40.54089 16400 ft 236 kts 339°
2026-04-21 20:52 -20.22278 -40.54472 16905 ft 236 kts 358°
2026-04-21 20:52 -20.20632 -40.54369 17417 ft 238 kts
2026-04-21 20:52 -20.18969 -40.54233 17938 ft 241 kts
2026-04-21 20:53 -20.17289 -40.54099 18453 ft 243 kts
2026-04-21 20:53 -20.15593 -40.53939 18901 ft 246 kts
2026-04-21 20:53 -20.13877 -40.53784 19351 ft 249 kts
2026-04-21 20:53 -20.12137 -40.53633 19807 ft 252 kts
2026-04-21 20:54 -20.10380 -40.53479 20255 ft 255 kts
2026-04-21 20:54 -20.08602 -40.53323 20716 ft 258 kts
2026-04-21 20:54 -20.06804 -40.53164 21178 ft 260 kts
2026-04-21 20:54 -20.04990 -40.53005 21646 ft 263 kts
2026-04-21 20:55 -20.03155 -40.52843 22116 ft 266 kts
2026-04-21 20:55 -20.01296 -40.52680 22590 ft 269 kts
2026-04-21 20:55 -19.99421 -40.52516 23071 ft 272 kts
2026-04-21 20:55 -19.97526 -40.52349 23561 ft 275 kts
2026-04-21 20:56 -19.95613 -40.52182 23975 ft 277 kts
2026-04-21 20:56 -19.93678 -40.52011 24377 ft 280 kts
2026-04-21 20:56 -19.91758 -40.51842 24787 ft 282 kts
2026-04-21 20:56 -19.89795 -40.51671 25193 ft 284 kts
2026-04-21 20:57 -19.87814 -40.51496 25603 ft 287 kts
2026-04-21 20:57 -19.85818 -40.51322 26023 ft 289 kts
2026-04-21 20:57 -19.83800 -40.51146 26439 ft 291 kts
2026-04-21 20:57 -19.81772 -40.50968 26850 ft 294 kts
2026-04-21 20:58 -19.79725 -40.50788 27257 ft 296 kts
2026-04-21 20:58 -19.77655 -40.50609 27667 ft 299 kts
2026-04-21 20:58 -19.75573 -40.50426 28065 ft 301 kts
2026-04-21 20:58 -19.73480 -40.50243 28449 ft 303 kts
2026-04-21 20:59 -19.71369 -40.50158 28825 ft 304 kts 353°
2026-04-21 20:59 -19.69282 -40.50522 29199 ft 305 kts 348°
2026-04-21 20:59 -19.67170 -40.50845 29625 ft 308 kts 350°
2026-04-21 20:59 -19.65040 -40.51151 30032 ft 310 kts 349°
2026-04-21 21:00 -19.62903 -40.51502 30386 ft 312 kts 348°
2026-04-21 21:00 -19.60777 -40.51852 30755 ft 312 kts 348°
2026-04-21 21:00 -19.58628 -40.52189 31164 ft 312 kts 348°
2026-04-21 21:00 -19.56482 -40.52528 31569 ft 312 kts 348°
2026-04-21 21:01 -19.54333 -40.52870 31954 ft 313 kts 348°
2026-04-21 21:01 -19.52179 -40.53214 32334 ft 313 kts 348°
2026-04-21 21:01 -19.50021 -40.53556 32725 ft 313 kts 348°
2026-04-21 21:01 -19.47862 -40.53900 33116 ft 313 kts 348°
2026-04-21 21:02 -19.45703 -40.54242 33489 ft 314 kts 348°
2026-04-21 21:02 -19.43543 -40.54585 33857 ft 314 kts 348°
2026-04-21 21:02 -19.41382 -40.54929 34194 ft 314 kts 348°
2026-04-21 21:02 -19.39221 -40.55272 34482 ft 315 kts 348°
2026-04-21 21:03 -19.37051 -40.55616 34779 ft 315 kts 348°
2026-04-21 21:03 -19.34882 -40.55959 35086 ft 316 kts 348°
2026-04-21 21:03 -19.32707 -40.56305 35378 ft 316 kts 348°
2026-04-21 21:03 -19.30533 -40.56651 35665 ft 316 kts 348°
2026-04-21 21:04 -19.28356 -40.56995 35952 ft 317 kts 348°
2026-04-21 21:04 -19.26195 -40.57337 36194 ft 318 kts 348°
2026-04-21 21:04 -19.24001 -40.57685 36468 ft 318 kts 348°
2026-04-21 21:04 -19.21801 -40.58033 36764 ft 319 kts 348°
2026-04-21 21:05 -19.19603 -40.58382 37052 ft 320 kts 348°
2026-04-21 21:05 -19.17402 -40.58729 37371 ft 320 kts 348°
2026-04-21 21:05 -19.15199 -40.59079 37668 ft 320 kts 348°
2026-04-21 21:05 -19.12992 -40.59427 37981 ft 320 kts 348°
2026-04-21 21:06 -19.10784 -40.59778 38283 ft 321 kts 348°
2026-04-21 21:06 -19.08576 -40.60126 38593 ft 321 kts 348°
2026-04-21 21:06 -19.06361 -40.60476 38860 ft 321 kts 348°
2026-04-21 21:06 -19.04171 -40.60823 39031 ft 325 kts 348°
2026-04-21 21:07 -19.01895 -40.61184 39035 ft 336 kts 348°
2026-04-21 21:07 -18.99548 -40.61554 39035 ft 346 kts 348°
2026-04-21 21:07 -18.94658 -40.62326 39045 ft 364 kts 348°
2026-04-21 21:08 -18.89523 -40.63137 39050 ft 381 kts 348°
2026-04-21 21:08 -18.84182 -40.63978 39052 ft 393 kts 348°
2026-04-21 21:09 -18.78715 -40.64838 39050 ft 401 kts 348°
2026-04-21 21:09 -18.73160 -40.65713 39042 ft 406 kts 348°
2026-04-21 21:10 -18.67582 -40.66591 39046 ft 409 kts 349°
2026-04-21 21:10 -18.61935 -40.67479 39048 ft 411 kts 349°
2026-04-21 21:11 -18.56258 -40.68372 39050 ft 413 kts 349°
2026-04-21 21:11 -18.50583 -40.69263 39046 ft 415 kts 349°
2026-04-21 21:12 -18.44853 -40.70087 39048 ft 417 kts 355°
2026-04-21 21:12 -18.41953 -40.69934 39047 ft 420 kts
2026-04-21 21:12 -18.39107 -40.69235 39051 ft 420 kts 18°
2026-04-21 21:13 -18.36430 -40.68004 39048 ft 420 kts 30°
2026-04-21 21:13 -18.33873 -40.66509 39052 ft 420 kts 30°
2026-04-21 21:13 -18.28736 -40.63559 39050 ft 421 kts 30°
2026-04-21 21:14 -18.23606 -40.60582 39040 ft 421 kts 30°
2026-04-21 21:14 -18.18477 -40.57627 39051 ft 419 kts 30°
2026-04-21 21:15 -18.13371 -40.54680 39048 ft 418 kts 30°
2026-04-21 21:15 -18.08278 -40.51744 39047 ft 416 kts 30°
2026-04-21 21:16 -18.03204 -40.48820 39046 ft 415 kts 30°
2026-04-21 21:16 -17.98175 -40.45926 39049 ft 414 kts 30°
2026-04-21 21:17 -17.93126 -40.43021 39049 ft 413 kts 30°
2026-04-21 21:17 -17.88086 -40.40123 39046 ft 412 kts 30°
2026-04-21 21:18 -17.83066 -40.37239 39044 ft 411 kts 30°
2026-04-21 21:18 -17.78060 -40.34363 39045 ft 410 kts 30°
2026-04-21 21:19 -17.73024 -40.31574 39044 ft 409 kts 28°
2026-04-21 21:19 -17.68020 -40.28824 39042 ft 408 kts 30°
2026-04-21 21:20 -17.62999 -40.26053 39041 ft 407 kts 29°
2026-04-21 21:20 -17.57989 -40.23295 39040 ft 406 kts 29°
2026-04-21 21:21 -17.53001 -40.20549 39037 ft 405 kts 29°
2026-04-21 21:21 -17.48010 -40.17804 39037 ft 404 kts 29°
2026-04-21 21:22 -17.43037 -40.15070 39035 ft 403 kts 29°
2026-04-21 21:22 -17.38100 -40.12358 39039 ft 402 kts 29°
2026-04-21 21:23 -17.33142 -40.09636 39037 ft 402 kts 29°
2026-04-21 21:23 -17.28183 -40.06915 39037 ft 401 kts 29°
2026-04-21 21:24 -17.23242 -40.04206 39037 ft 400 kts 29°
2026-04-21 21:24 -17.18311 -40.01504 39032 ft 400 kts 29°
2026-04-21 21:25 -17.13419 -39.98824 39032 ft 399 kts 28°
2026-04-21 21:25 -17.08506 -39.96135 39038 ft 398 kts 28°
2026-04-21 21:26 -17.03606 -39.93454 39038 ft 397 kts 28°
2026-04-21 21:26 -16.98712 -39.90779 39038 ft 397 kts 28°
2026-04-21 21:27 -16.93818 -39.88106 39037 ft 396 kts 28°
2026-04-21 21:27 -16.88931 -39.85439 39037 ft 396 kts 28°
2026-04-21 21:28 -16.84057 -39.82780 39037 ft 395 kts 28°
2026-04-21 21:29 -16.76748 -39.78797 39036 ft 395 kts 28°
2026-04-21 21:29 -16.72697 -39.76590 39036 ft 395 kts 28°
2026-04-21 21:30 -16.67042 -39.73511 39039 ft 394 kts 28°
2026-04-21 21:30 -16.62171 -39.70861 39038 ft 394 kts 29°
2026-04-21 21:31 -16.58121 -39.68659 39034 ft 394 kts 28°
2026-04-21 21:31 -16.53266 -39.66020 39033 ft 394 kts 28°
2026-04-21 21:32 -16.48403 -39.63379 39028 ft 394 kts 29°
2026-04-21 21:32 -16.43545 -39.60742 39031 ft 393 kts 29°
2026-04-21 21:33 -16.38690 -39.58108 39031 ft 393 kts 29°
2026-04-21 21:33 -16.33844 -39.55480 39029 ft 393 kts 29°
2026-04-21 21:34 -16.28997 -39.52853 39029 ft 392 kts 29°
2026-04-21 21:34 -16.24154 -39.50230 39028 ft 392 kts 29°
2026-04-21 21:35 -16.19320 -39.47613 39026 ft 392 kts 29°
2026-04-21 21:35 -16.14484 -39.44997 39026 ft 392 kts 29°
2026-04-21 21:36 -16.09649 -39.42382 39028 ft 391 kts 29°
2026-04-21 21:36 -16.04845 -39.39786 39028 ft 391 kts 29°
2026-04-21 21:37 -16.00016 -39.37178 39022 ft 391 kts 29°
2026-04-21 21:37 -15.95185 -39.34570 39023 ft 391 kts 29°
2026-04-21 21:38 -15.90356 -39.31964 39024 ft 391 kts 28°
2026-04-21 21:38 -15.85530 -39.29362 39019 ft 390 kts 28°
2026-04-21 21:39 -15.80706 -39.26761 39018 ft 390 kts 28°
2026-04-21 21:39 -15.75918 -39.24181 39019 ft 390 kts 28°
2026-04-21 21:40 -15.71097 -39.21585 39014 ft 390 kts 28°
2026-04-21 21:40 -15.66280 -39.18992 39017 ft 390 kts 28°
2026-04-21 21:41 -15.61461 -39.16401 39014 ft 389 kts 28°
2026-04-21 21:41 -15.56656 -39.13817 39017 ft 389 kts 28°
2026-04-21 21:42 -15.51853 -39.11237 39017 ft 389 kts 28°
2026-04-21 21:42 -15.47056 -39.08661 39013 ft 388 kts 28°
2026-04-21 21:43 -15.42263 -39.06088 39010 ft 388 kts 28°
2026-04-21 21:43 -15.37477 -39.03520 39011 ft 387 kts 28°
2026-04-21 21:44 -15.32690 -39.00953 39006 ft 387 kts 28°
2026-04-21 21:44 -15.27909 -38.98391 39008 ft 387 kts 28°
2026-04-21 21:45 -15.23154 -38.95844 39006 ft 387 kts 27°
2026-04-21 21:45 -15.18371 -38.93283 39004 ft 387 kts 27°
2026-04-21 21:46 -15.13332 -38.91389 39005 ft 386 kts 17°
2026-04-21 21:46 -15.08212 -38.89682 39000 ft 387 kts 17°
2026-04-21 21:47 -15.03071 -38.88033 39004 ft 387 kts 17°
2026-04-21 21:47 -14.97942 -38.86358 39009 ft 387 kts 17°
2026-04-21 21:48 -14.92794 -38.84691 39004 ft 387 kts 17°
2026-04-21 21:48 -14.87653 -38.83021 39003 ft 387 kts 17°
2026-04-21 21:49 -14.82555 -38.81369 39005 ft 386 kts 17°
2026-04-21 21:49 -14.77424 -38.79705 39004 ft 386 kts 17°
2026-04-21 21:50 -14.72289 -38.78042 38997 ft 386 kts 17°
2026-04-21 21:50 -14.67156 -38.76380 38995 ft 386 kts 17°
2026-04-21 21:51 -14.62020 -38.74718 38993 ft 386 kts 17°
2026-04-21 21:51 -14.56924 -38.73067 38985 ft 386 kts 17°
2026-04-21 21:52 -14.51793 -38.71406 38989 ft 386 kts 17°
2026-04-21 21:52 -14.46659 -38.69746 38896 ft 389 kts 18°
2026-04-21 21:52 -14.44041 -38.68898 38255 ft 400 kts 18°
2026-04-21 21:53 -14.41357 -38.68030 37570 ft 408 kts 18°
2026-04-21 21:53 -14.38629 -38.67149 36913 ft 414 kts 18°
2026-04-21 21:53 -14.35875 -38.66260 36273 ft 413 kts 18°
2026-04-21 21:53 -14.33149 -38.65379 35657 ft 410 kts 18°
2026-04-21 21:54 -14.30439 -38.64503 35049 ft 407 kts 18°
2026-04-21 21:54 -14.27747 -38.63634 34452 ft 404 kts 18°
2026-04-21 21:54 -14.25075 -38.62771 33853 ft 401 kts 18°
2026-04-21 21:54 -14.22422 -38.61915 33194 ft 398 kts 19°
2026-04-21 21:55 -14.19793 -38.61067 32552 ft 395 kts 19°
2026-04-21 21:55 -14.17183 -38.60225 31923 ft 392 kts 19°
2026-04-21 21:55 -14.14592 -38.59390 31307 ft 388 kts 19°
2026-04-21 21:55 -14.12021 -38.58561 30706 ft 385 kts 19°
2026-04-21 21:56 -14.09480 -38.57741 30121 ft 381 kts 20°
2026-04-21 21:56 -14.06958 -38.56928 29434 ft 378 kts 19°
2026-04-21 21:56 -14.04458 -38.56122 28767 ft 375 kts 19°
2026-04-21 21:56 -14.01975 -38.55324 28109 ft 371 kts 19°
2026-04-21 21:57 -13.99552 -38.54543 27471 ft 368 kts 19°
2026-04-21 21:57 -13.97088 -38.53748 26834 ft 365 kts 19°
2026-04-21 21:57 -13.94702 -38.52979 26230 ft 363 kts 19°
2026-04-21 21:57 -13.92257 -38.52194 25616 ft 367 kts 18°
2026-04-21 21:58 -13.89803 -38.51512 25089 ft 374 kts 10°
2026-04-21 21:58 -13.87193 -38.51355 24602 ft 380 kts 358°
2026-04-21 21:58 -13.84526 -38.51494 24100 ft 388 kts 357°
2026-04-21 21:58 -13.81806 -38.51623 23584 ft 395 kts 357°
2026-04-21 21:59 -13.79041 -38.51749 23003 ft 399 kts 357°
2026-04-21 21:59 -13.76265 -38.51882 22474 ft 401 kts 356°
2026-04-21 21:59 -13.73474 -38.52017 21944 ft 402 kts 356°
2026-04-21 21:59 -13.70680 -38.52149 21415 ft 402 kts 356°
2026-04-21 22:00 -13.67876 -38.52280 20883 ft 403 kts 356°
2026-04-21 22:00 -13.65064 -38.52414 20347 ft 403 kts 356°
2026-04-21 22:00 -13.62265 -38.52547 19815 ft 403 kts 356°
2026-04-21 22:00 -13.59462 -38.52679 19279 ft 402 kts 356°
2026-04-21 22:01 -13.56703 -38.52809 18754 ft 402 kts 356°
2026-04-21 22:01 -13.53913 -38.52942 18223 ft 401 kts 356°
2026-04-21 22:01 -13.51122 -38.53074 17653 ft 400 kts 356°
2026-04-21 22:01 -13.48352 -38.53205 17128 ft 397 kts 356°
2026-04-21 22:02 -13.45597 -38.53335 16602 ft 395 kts 356°
2026-04-21 22:02 -13.42852 -38.53464 16079 ft 394 kts 356°
2026-04-21 22:02 -13.40125 -38.53594 15560 ft 392 kts 356°
2026-04-21 22:02 -13.37401 -38.53723 15045 ft 391 kts 356°
2026-04-21 22:03 -13.34683 -38.53851 14526 ft 390 kts 356°
2026-04-21 22:03 -13.31979 -38.53978 14014 ft 389 kts 356°
2026-04-21 22:03 -13.29310 -38.54105 13477 ft 387 kts 356°
2026-04-21 22:03 -13.26627 -38.54232 12958 ft 384 kts 357°
2026-04-21 22:04 -13.23973 -38.54357 12458 ft 380 kts 357°
2026-04-21 22:04 -13.21670 -38.54466 12020 ft 377 kts 358°
2026-04-21 22:04 -13.19057 -38.54589 11522 ft 373 kts 358°
2026-04-21 22:04 -13.16472 -38.54711 11037 ft 369 kts 358°
2026-04-21 22:05 -13.13917 -38.54832 10549 ft 366 kts 358°
2026-04-21 22:05 -13.11383 -38.54952 10067 ft 362 kts 359°
2026-04-21 22:05 -13.08908 -38.55070 9576 ft 358 kts 359°
2026-04-21 22:05 -13.06440 -38.55187 9104 ft 352 kts 359°
2026-04-21 22:06 -13.04012 -38.55300 8643 ft 346 kts 359°
2026-04-21 22:06 -13.01634 -38.55412 8188 ft 339 kts 359°
2026-04-21 22:06 -12.99295 -38.55523 7746 ft 334 kts 359°
2026-04-21 22:06 -12.96989 -38.55631 7308 ft 329 kts 359°
2026-04-21 22:07 -12.94728 -38.55738 6878 ft 317 kts 359°
2026-04-21 22:07 -12.92582 -38.55840 6472 ft 301 kts 359°
2026-04-21 22:07 -12.90528 -38.55937 6066 ft 290 kts 359°
2026-04-21 22:07 -12.88543 -38.56028 5692 ft 281 kts 359°
2026-04-21 22:08 -12.86614 -38.56121 5338 ft 274 kts 359°
2026-04-21 22:08 -12.84800 -38.56205 5003 ft 269 kts 360°
2026-04-21 22:08 -12.82972 -38.56067 4649 ft 259 kts 15°
2026-04-21 22:08 -12.81330 -38.55461 4315 ft 250 kts 30°
2026-04-21 22:09 -12.79918 -38.54480 4012 ft 240 kts 45°
2026-04-21 22:09 -12.78840 -38.53257 3903 ft 224 kts 58°
2026-04-21 22:09 -12.78106 -38.51899 3739 ft 214 kts 71°
2026-04-21 22:09 -12.77690 -38.50463 3551 ft 208 kts 83°
2026-04-21 22:10 -12.77561 -38.49017 3358 ft 201 kts 91°
2026-04-21 22:10 -12.77472 -38.47593 3171 ft 199 kts 89°
2026-04-21 22:10 -12.77417 -38.46187 2982 ft 194 kts 98°
2026-04-21 22:10 -12.77766 -38.44887 2893 ft 185 kts 115°
2026-04-21 22:11 -12.78398 -38.43788 2891 ft 175 kts 130°
2026-04-21 22:11 -12.79276 -38.42927 2712 ft 177 kts 144°
2026-04-21 22:11 -12.80299 -38.42200 2483 ft 181 kts 144°
2026-04-21 22:11 -12.81299 -38.41430 2263 ft 183 kts 144°
2026-04-21 22:12 -12.82340 -38.40659 2023 ft 186 kts 145°
2026-04-21 22:12 -12.83399 -38.39873 1784 ft 189 kts 145°
2026-04-21 22:12 -12.84461 -38.39082 1540 ft 183 kts 145°
2026-04-21 22:12 -12.85388 -38.38390 1324 ft 149 kts 145°
2026-04-21 22:13 -12.86179 -38.37799 1141 ft 133 kts 146°
2026-04-21 22:13 -12.86892 -38.37270 976 ft 121 kts 145°
2026-04-21 22:13 -12.87547 -38.36782 829 ft 113 kts 145°
2026-04-21 22:13 -12.88166 -38.36322 686 ft 107 kts 145°
2026-04-21 22:14 -12.88758 -38.35880 555 ft 105 kts 145°
2026-04-21 22:14 -12.89340 -38.35450 417 ft 104 kts 145°
2026-04-21 22:14 -12.89915 -38.35015 318 ft 98 kts 143°
2026-04-21 22:14 -12.90439 -38.34626 197 ft 89 kts 145°
2026-04-21 22:15 -12.90911 -38.34273 53 ft 78 kts 144°
2026-04-21 22:15 -12.91282 -38.33999 41 ft 46 kts 144°
2026-04-21 22:15 -12.91415 -38.33918 41 ft 7 kts 199°
2026-04-21 22:15 -12.91438 -38.33947 40 ft 7 kts 232°
2026-04-21 22:16 -12.91479 -38.34003 39 ft 12 kts 232°
2026-04-21 22:16 -12.91526 -38.34070 39 ft 12 kts 235°
2026-04-21 22:16 -12.91535 -38.34083 39 ft 0 kts 234°
2026-04-21 22:16 -12.91537 -38.34086 39 ft 2 kts 234°
2026-04-21 22:17 -12.91551 -38.34106 39 ft 2 kts 234°
2026-04-21 22:17 -12.91559 -38.34113 39 ft 2 kts 194°
2026-04-21 22:17 -12.91567 -38.34107 39 ft 2 kts 121°
2026-04-21 22:17 -12.91577 -38.34098 39 ft 0 kts 139°
2026-04-21 22:18 -12.91581 -38.34096 39 ft 2 kts 145°
2026-04-21 22:18 -12.91585 -38.34093 39 ft 0 kts 145°